Weather Roundup
Issued by NWS Chicago, IL

Home | Current Version | Previous Version | Text Only | Print | Product List | Glossary On
Versions: 1 2 3 4 5 6 7 8 9 10 11 12 13 14 15 16 17 18 19 20 21 22 23 24 25 26 27 28 29 30 31 32 33 34 35 36 37 38 39 40 41 42 43 44 45 46 47 48 49 50
000
NZUS59 KLOT 281308
HRRLOT

CHICAGO AREA WEATHER ROUNDUP
NATIONAL WEATHER SERVICE CHICAGO/ROMEOVILLE IL
800 AM CDT FRI APR 28 2017

NOTE: "FAIR" INDICATES FEW OR NO CLOUDS BELOW 12,000 FEET WITH NO
SIGNIFICANT WEATHER AND/OR OBSTRUCTIONS TO VISIBILITY.

* THESE STATIONS ARE NOT UNDER NWS QUALITY CONTROL. THEY ALSO MAY NOT
  REPORT WEATHER SUCH AS PRECIPITATION OR FOG.

ILZ005-006-012>014-019>023-281400-
NORTHEAST ILLINOIS

CITY           SKY/WX    TMP DP  RH WIND       PRES   REMARKS
OHARE          CLOUDY    44  32  62 CALM      29.93S
MIDWAY         MOSUNNY   48  38  68 N3        29.94F
AURORA         MOSUNNY   45  37  73 NE3       29.94S
LANSING*       MOSUNNY   47  45  91 CALM      29.95S
JOLIET*        SUNNY     47  40  74 CALM      29.95R
WAUKEGAN       SUNNY     43  33  68 SW3       29.93R
DUPAGE AIRPORT CLOUDY    44  36  73 CALM      29.93S
WHEELING       MOSUNNY   44  35  70 S7        29.95R
KANKAKEE*      MOSUNNY   51  48  87 S7        29.94S
MORRIS*        SUNNY     46  38  75 CALM      29.94R
LEWIS AIRPORT* SUNNY     46  42  85 CALM      29.94R
NORTHERLY ISL    N/A     48  36  63 CALM        N/A
$$

WIZ051-052-058>065-066-070>072-281400-
SOUTHEAST WISCONSIN

CITY           SKY/WX    TMP DP  RH WIND       PRES   REMARKS
MILWAUKEE      MOSUNNY   42  32  67 W7        29.92R
KENOSHA*       MOSUNNY   42  33  70 W6        29.94R
RACINE*        SUNNY     41  31  67 W5        29.95R
WAUKESHA       MOSUNNY   37  32  81 SW3       29.93R
WEST BEND      CLOUDY    36  32  87 W7        29.91R
$$

INZ001>003-010>013-019-020-281400-
NORTHWEST INDIANA

CITY           SKY/WX    TMP DP  RH WIND       PRES   REMARKS
GARY*          MOSUNNY   50  43  76 CALM      29.95S
MICHIGAN CITY* NOT AVBL
RENSSELAER*    NOT AVBL
VALPARAISO     CLOUDY    51  44  77 SW7       29.96R
$$

LMZ740>746-281400-
SOUTHERN LAKE MICHIGAN

STATION/POSITION TIME  SKY/WX   TEMP WIND        PRES    VSBY
                                AIR  DIR/SP/G
                 (UTC)          (F)  (DEG/KT/KT) (MB)    (MI)
HARRISON CRIB    1230            47  180/  5/  6   N/A
BURNHAM HARBOR   1300            48   CALM  /  7   N/A
CALUMET HARBOR   1242            47   90/  2/  3 1013.4F
BURNS HARBOR     1240            48     CALM     1014.9R
MICHIGAN CITY    1240            46  210/  2/  3   N/A
$$

ABBREVIATIONS USED IN REMARKS
   TC - TEMPERATURE IN CELSIUS
  WCI - WIND CHILL INDEX
   HX - HEAT INDEX
  VSB - VISIBILITY
$$




USA.gov is the U.S. government's official web portal to all federal, state and local government web resources and services.